| time (UTC) | temp C | wind direction | speed KPH | gust KPH | rain 1hr cm | rain 24hr cm | rain mn cm | humidity % | barometer mb |
| 20260502161525 | 28 | 25 | 19.3 | 33.8 | 0.00 | 0.00 | 0.00 | 14 | 998.4 |
| 20260502151517 | 26 | 338 | 19.3 | 30.6 | 0.00 | 0.00 | 0.00 | 14 | 998.3 |
| 20260502123055 | 18 | 78 | 0.0 | 3.2 | 0.00 | 0.00 | 0.00 | 23 | 997.0 |
| 20260502121553 | 16 | 167 | 0.0 | 1.6 | 0.00 | 0.00 | 0.00 | 27 | 996.9 |
| 20260502120104 | 16 | 160 | 0.0 | 3.2 | 0.00 | 0.00 | 0.00 | 33 | 996.7 |
| 20260502114615 | 17 | 219 | 0.0 | 6.4 | 0.00 | 0.00 | 0.00 | 29 | 996.6 |
| 20260502113046 | 22 | 286 | 0.0 | 8.0 | 0.00 | 0.00 | 0.00 | 16 | 996.4 |
| 20260502111545 | 21 | 318 | 0.0 | 3.2 | 0.00 | 0.00 | 0.00 | 17 | 996.4 |
| 20260502110044 | 21 | 275 | 1.6 | 8.0 | 0.00 | 0.00 | 0.00 | 18 | 996.4 |
| 20260502104545 | 20 | 323 | 3.2 | 11.3 | 0.00 | 0.00 | 0.00 | 20 | 996.5 |
| 20260502103042 | 18 | 291 | 0.0 | 6.4 | 0.00 | 0.00 | 0.00 | 22 | 996.4 |
| 20260502101559 | 19 | 249 | 0.0 | 3.2 | 0.00 | 0.00 | 0.00 | 22 | 996.4 |
| 20260502091532 | 21 | 156 | 0.0 | 3.2 | 0.00 | 0.00 | 0.00 | 21 | 996.5 |
| 20260502071519 | 24 | 31 | 1.6 | 8.0 | 0.00 | 0.00 | 0.00 | 15 | 996.4 |
| 20260502070018 | 23 | 58 | 0.0 | 0.0 | 0.00 | 0.00 | 0.00 | 20 | 996.3 |
| 20260502064531 | 22 | 63 | 0.0 | 4.8 | 0.00 | 0.00 | 0.00 | 18 | 996.2 |
| 20260502063020 | 24 | 315 | 0.0 | 3.2 | 0.00 | 0.00 | 0.00 | 20 | 996.1 |
| 20260502061512 | 26 | 317 | 0.0 | 8.0 | 0.00 | 0.00 | 0.00 | 13 | 995.9 |
| 20260502060028 | 27 | 313 | 4.8 | 14.5 | 0.00 | 0.00 | 0.00 | 12 | 995.7 |
| 20260502054512 | 27 | 19 | 9.7 | 14.5 | 0.00 | 0.00 | 0.00 | 13 | 995.6 |
| 20260502053011 | 28 | 30 | 11.3 | 22.5 | 0.00 | 0.00 | 0.00 | 12 | 995.4 |
| 20260502051511 | 26 | 42 | 11.3 | 16.1 | 0.00 | 0.00 | 0.00 | 13 | 995.3 |
| 20260502050016 | 26 | 317 | 0.0 | 11.3 | 0.00 | 0.00 | 0.00 | 16 | 995.3 |
| 20260502044511 | 26 | 298 | 0.0 | 4.8 | 0.00 | 0.00 | 0.00 | 16 | 995.0 |
| 20260502043009 | 27 | 325 | 0.0 | 11.3 | 0.00 | 0.00 | 0.00 | 15 | 994.9 |
| 20260502041509 | 28 | 336 | 0.0 | 3.2 | 0.00 | 0.00 | 0.00 | 15 | 994.8 |
| 20260502040008 | 28 | 109 | 0.0 | 9.7 | 0.00 | 0.00 | 0.00 | 12 | 994.6 |
| 20260502034508 | 29 | 71 | 1.6 | 9.7 | 0.00 | 0.00 | 0.00 | 12 | 994.5 |
| 20260502033009 | 29 | 24 | 8.0 | 14.5 | 0.00 | 0.00 | 0.00 | 12 | 994.3 |
| 20260502031506 | 30 | 52 | 8.0 | 14.5 | 0.00 | 0.00 | 0.00 | 13 | 994.0 |
| 20260502030006 | 30 | 339 | 11.3 | 22.5 | 0.00 | 0.00 | 0.00 | 13 | 993.7 |
| 20260502024511 | 30 | 43 | 16.1 | 24.1 | 0.00 | 0.00 | 0.00 | 12 | 993.7 |
| 20260502023004 | 30 | 325 | 12.9 | 24.1 | 0.00 | 0.00 | 0.00 | 12 | 993.5 |
| 20260502021503 | 31 | 36 | 16.1 | 30.6 | 0.00 | 0.00 | 0.00 | 12 | 993.3 |
| 20260502020004 | 31 | 9 | 12.9 | 25.7 | 0.00 | 0.00 | 0.00 | 12 | 993.2 |
| 20260502014502 | 32 | 332 | 14.5 | 22.5 | 0.00 | 0.00 | 0.00 | 12 | 993.0 |
| 20260502013002 | 32 | 340 | 22.5 | 35.4 | 0.00 | 0.00 | 0.00 | 12 | 992.9 |
| 20260502011501 | 32 | 333 | 24.1 | 41.8 | 0.00 | 0.00 | 0.00 | 12 | 992.8 |
| 20260502010111 | 32 | 343 | 22.5 | 35.4 | 0.00 | 0.00 | 0.00 | 12 | 992.7 |
| 20260502004559 | 32 | 12 | 17.7 | 33.8 | 0.00 | 0.00 | 0.00 | 12 | 992.8 |
| 20260502003058 | 32 | 32 | 19.3 | 30.6 | 0.00 | 0.00 | 0.00 | 12 | 992.8 |
| 20260502001557 | 32 | 333 | 17.7 | 37.0 | 0.00 | 0.00 | 0.00 | 13 | 992.8 |
| 20260502000057 | 32 | 26 | 22.5 | 38.6 | 0.00 | 0.00 | 0.00 | 12 | 992.8 |
| 20260501234555 | 32 | 41 | 25.7 | 40.2 | 0.00 | 0.00 | 0.00 | 12 | 992.9 |
| 20260501233103 | 32 | 15 | 24.1 | 40.2 | 0.00 | 0.00 | 0.00 | 12 | 992.8 |
| 20260501231604 | 32 | 338 | 16.1 | 33.8 | 0.00 | 0.00 | 0.00 | 13 | 993.0 |
| 20260501230053 | 32 | 14 | 22.5 | 37.0 | 0.00 | 0.00 | 0.00 | 12 | 993.2 |
| 20260501224553 | 32 | 5 | 22.5 | 32.2 | 0.00 | 0.00 | 0.00 | 12 | 993.3 |
| 20260501223052 | 32 | 15 | 20.9 | 33.8 | 0.00 | 0.00 | 0.00 | 13 | 993.5 |
| 20260501221552 | 32 | 14 | 25.7 | 43.5 | 0.00 | 0.00 | 0.00 | 12 | 993.7 |
| 20260501220105 | 32 | 345 | 22.5 | 35.4 | 0.00 | 0.00 | 0.00 | 12 | 993.9 |
| 20260501214551 | 32 | 29 | 22.5 | 40.2 | 0.00 | 0.00 | 0.00 | 13 | 994.0 |
| 20260501213050 | 32 | 5 | 20.9 | 40.2 | 0.00 | 0.00 | 0.00 | 13 | 994.2 |
| 20260501211557 | 32 | 30 | 22.5 | 38.6 | 0.00 | 0.00 | 0.00 | 13 | 994.5 |
| 20260501210048 | 32 | 350 | 17.7 | 30.6 | 0.00 | 0.00 | 0.00 | 14 | 994.8 |
| 20260501204559 | 32 | 328 | 17.7 | 32.2 | 0.00 | 0.00 | 0.00 | 13 | 994.9 |
| 20260501203047 | 32 | 26 | 20.9 | 32.2 | 0.00 | 0.00 | 0.00 | 13 | 995.0 |
| 20260501201546 | 32 | 341 | 17.7 | 30.6 | 0.00 | 0.00 | 0.00 | 14 | 995.1 |
| 20260501200046 | 31 | 334 | 19.3 | 32.2 | 0.00 | 0.00 | 0.00 | 13 | 995.2 |
| 20260501194547 | 31 | 36 | 20.9 | 35.4 | 0.00 | 0.00 | 0.00 | 13 | 995.3 |
| 20260501193042 | 31 | 5 | 22.5 | 35.4 | 0.00 | 0.00 | 0.00 | 13 | 995.5 |
| 20260501191543 | 31 | 333 | 20.9 | 40.2 | 0.00 | 0.00 | 0.00 | 12 | 995.7 |
| 20260501190043 | 30 | 336 | 22.5 | 38.6 | 0.00 | 0.00 | 0.00 | 14 | 995.9 |
| 20260501184545 | 30 | 24 | 25.7 | 40.2 | 0.00 | 0.00 | 0.00 | 13 | 996.0 |
| 20260501183038 | 30 | 59 | 24.1 | 40.2 | 0.00 | 0.00 | 0.00 | 14 | 996.1 |
| 20260501181533 | 30 | 42 | 20.9 | 38.6 | 0.00 | 0.00 | 0.00 | 15 | 996.2 |
| 20260501180032 | 29 | 34 | 24.1 | 40.2 | 0.00 | 0.00 | 0.00 | 14 | 996.5 |
| 20260501174530 | 28 | 340 | 27.4 | 38.6 | 0.00 | 0.00 | 0.00 | 14 | 996.5 |
| 20260501173028 | 28 | 346 | 30.6 | 40.2 | 0.00 | 0.00 | 0.00 | 14 | 996.5 |
| 20260501171537 | 28 | 346 | 27.4 | 40.2 | 0.00 | 0.00 | 0.00 | 15 | 996.6 |
| 20260501170025 | 28 | 19 | 25.7 | 48.3 | 0.00 | 0.00 | 0.00 | 16 | 996.6 |
| 20260501164524 | 27 | 348 | 24.1 | 43.5 | 0.00 | 0.00 | 0.00 | 18 | 996.5 |
| 20260501163021 | 27 | 24 | 30.6 | 46.7 | 0.00 | 0.00 | 0.00 | 17 | 996.6 |